Vertical_Velocity
-2 -3 -2 -3 -2 1 3 0 1 -1 -3 -1 1 -1 -0 -1 0 -0 -1 -1 -1 -1 1 -1 -1 -1 0 -1 -2 2 2 2 4 2 8 2 -1 1 -1 -4 -1 1 1 1
0 0 -3 -8 -4 -1 -1 -4 0 -2 -1 2 -0 1 0 -1 -1 -1 -2 0 1 1 -2 -1 -2 1 4 -2 1 2 2 1 3 4 -1 -1 1 -1 1 -1 -2 -1 -2 0
1 3 -0 -1 -2 -3 0 -2 1 -3 0 -0 -0 1 -1 -2 -3 -2 2 -0 0 1 2 -0 1 0 2 1 2 1 2 5 2 1 -2 -3 -0 0 -0 -1 -4 -2 -0 -1
8 5 3 2 -3 -1 -0 -1 -4 0 0 0 0 -2 -1 -1 -1 -1 -1 -0 2 1 -1 1 -0 -0 5 1 2 4 3 2 1 -3 -3 -0 2 -0 0 -0 1 -1 1 1
4 1 4 4 -2 -0 -0 -3 -0 -2 -2 1 -1 1 -1 -2 -3 -1 0 3 2 2 2 -0 1 1 8 2 5 3 4 4 -1 -4 -4 3 1 1 -2 1 2 -3 3 0
21 3 -2 3 0 1 -1 -1 -2 -2 -1 -1 -1 -4 -1 -7 -0 2 2 0 -0 -4 -2 2 0 -1 9 3 3 5 3 -0 -3 -3 -2 0 2 3 -3 1 1 -5 1 1
12 1 -1 1 1 0 -0 -1 -1 -2 -2 -3 -7 1 -3 -1 1 1 3 -1 1 3 2 3 1 -4 8 6 5 -2 -3 2 -0 -2 -0 -0 -1 -0 -2 3 1 -1 0 5
18 5 -1 2 3 0 1 1 -1 -2 -1 -2 -6 3 -0 -1 1 2 3 1 1 3 2 4 3 -5 1 13 -1 -1 3 3 0 -0 -2 -1 -0 -1 -2 2 0 -4 1 -1
6 2 1 3 1 1 -0 -0 -0 -1 -1 -1 -3 0 2 -0 0 2 1 2 2 3 2 2 3 0 -4 6 7 4 -0 4 3 -0 -4 -3 2 2 1 -0 2 -1 -3 0
-0 5 1 2 -1 0 -0 -0 -0 -1 -1 -2 -3 -2 2 0 2 2 2 -1 2 1 1 2 2 2 -3 -1 2 6 6 2 4 1 2 -3 5 4 2 2 2 1 -4 -1
6 2 2 -1 0 0 -1 -1 -1 -1 -1 -1 -1 -3 -0 1 3 3 1 1 -0 1 2 3 1 3 -1 -2 1 4 6 0 5 6 3 -1 4 2 2 -1 1 2 1 -4
-1 -0 -1 -1 1 0 -1 0 0 -1 -0 -0 -1 -1 -0 2 2 3 3 -0 0 1 -0 1 2 3 3 1 2 -1 10 5 -1 3 12 1 3 4 -2 -2 1 2 1 2
-0 -3 -2 -1 1 0 -1 -1 -0 -1 -2 0 -0 1 -1 1 3 2 2 1 -0 2 0 2 3 2 3 3 1 1 0 5 2 3 11 8 -5 1 3 -3 1 1 -0 0
-2 -1 -1 -0 1 -1 -1 -1 -1 -0 -2 -0 0 -0 -3 -0 2 1 2 2 -1 1 0 1 1 2 2 3 2 1 0 -2 5 5 2 11 -1 1 1 3 1 0 -1 -4
-3 -1 0 -0 1 -0 0 -1 -1 1 -1 0 1 1 -0 -1 0 1 1 2 -1 -0 -0 -1 0 1 1 1 2 2 4 2 -2 -2 4 6 8 2 -0 3 0 0 0 1
-2 -3 -2 -1 -1 -0 0 0 -0 -0 -1 0 2 1 -0 1 1 1 0 1 1 -0 -1 -0 -1 0 1 0 2 2 1 1 1 0 -4 3 3 6 10 8 2 -1 -3 -2
-1 -2 -3 -2 -1 -1 -1 -0 -0 -0 1 -0 1 -0 -1 1 0 1 1 0 -0 0 -0 -1 -0 1 0 -0 0 0 1 2 2 0 3 -1 -3 5 2 2 9 1 5 2
0 -1 -2 -3 -1 -1 -1 0 0 0 1 -0 -1 1 -1 -2 -1 -1 1 1 -0 0 1 0 -1 -0 1 1 1 1 -0 0 1 3 2 2 2 -3 7 3 1 3 2 0
-1 -1 -1 -2 -3 -1 -1 -3 -0 0 1 1 -0 -0 1 1 0 -1 -0 0 -0 0 1 0 0 -0 -0 0 1 2 0 0 1 1 3 2 1 1 1 2 0 1 2 0
0 0 0 -2 1 -3 0 0 -3 -1 1 1 2 0 -0 -0 -1 0 0 0 0 0 1 0 0 -0 -0 -0 -0 -0 1 2 1 0 1 2 2 1 1 1 1 -1 -2 -1
4 -1 -2 -2 -1 1 -1 0 1 -2 -1 0 -0 1 0 -0 -1 -1 -1 -0 -0 -0 1 1 1 0 0 -0 -1 0 1 1 0 0 1 -0 1 2 2 -0 -0 0 0 -2
-3 1 2 1 -0 -1 -1 -0 -2 0 -1 -2 -0 -0 -0 0 -0 -0 -1 -0 -1 -1 -0 0 1 1 0 -0 -0 -1 -1 -0 1 1 0 -1 -0 1 1 2 2 1 -0 0
-2 -3 -1 1 2 -0 -2 1 1 1 -2 -1 -1 -0 -1 -1 -0 -1 1 1 -0 -1 -0 -1 -1 0 0 0 -0 -0 -1 -2 -1 -1 -1 0 1 -1 -0 1 1 1 2 2
2 1 0 1 1 1 2 -0 -1 -1 0 2 1 -1 -1 -1 -1 -1 -1 -0 -0 1 -0 -1 0 -0 0 0 -0 1 1 0 -1 -1 -0 -1 -2 -1 -0 -0 0 0 -0 0
-1 -0 -2 -1 1 2 2 1 2 0 0 0 1 2 1 -1 -2 -1 -1 -1 -1 -1 -0 0 -1 -1 -0 -0 -0 -1 -0 0 0 0 -1 -1 -0 -0 -1 -0 1 1 2 1
-1 -1 -2 -2 -4 -2 1 1 -0 1 0 -0 2 3 1 1 2 1 -2 -2 -1 -1 -1 -1 -1 -0 -1 -2 -1 -1 -1 -1 -0 0 0 -0 -1 -1 -0 0 -0 -1 -1 -1
1 -0 -3 -2 -4 -2 -4 0 1 -0 2 2 2 4 1 5 0 -0 1 0 -2 -2 -1 -0 -0 -1 -1 -0 -0 -1 -2 -2 -1 -1 -1 -1 -1 -1 -2 -3 -2 -1 -1 -0
Height
5722 5721 5719 5717 5716 5714 5713 5711 5712 5711 5709 5707 5704 5699 5694 5689 5685 5682 5678 5674 5670 5665 5659 5651 5642 5632 5620 5608 5596 5585 5576 5566 5556 5544 5531 5516 5498 5482 5470 5459 5449 5437 5424 5412
5720 5719 5719 5719 5717 5715 5713 5714 5713 5713 5712 5709 5704 5699 5695 5692 5688 5685 5681 5677 5673 5668 5661 5652 5643 5631 5620 5607 5596 5585 5576 5566 5556 5543 5526 5509 5493 5479 5468 5456 5444 5430 5418 5403
5716 5715 5717 5718 5718 5716 5717 5716 5717 5715 5714 5710 5705 5701 5698 5694 5692 5689 5686 5682 5676 5671 5664 5655 5645 5632 5619 5608 5597 5587 5579 5568 5556 5541 5524 5507 5491 5479 5467 5454 5441 5429 5416 5400
5709 5710 5713 5716 5718 5720 5719 5719 5719 5718 5716 5712 5708 5705 5701 5698 5696 5693 5690 5686 5681 5675 5667 5659 5648 5634 5622 5611 5602 5593 5582 5570 5557 5542 5524 5507 5493 5481 5469 5456 5443 5431 5418 5403
5705 5708 5711 5713 5718 5720 5721 5722 5722 5721 5719 5715 5712 5709 5704 5703 5701 5699 5695 5691 5685 5679 5671 5664 5652 5639 5627 5617 5608 5598 5586 5575 5561 5544 5527 5511 5498 5487 5474 5460 5448 5435 5423 5409
5700 5706 5709 5712 5716 5719 5721 5725 5725 5725 5722 5719 5716 5712 5711 5709 5707 5704 5700 5695 5689 5682 5675 5667 5659 5644 5632 5623 5614 5603 5591 5580 5566 5550 5534 5519 5507 5495 5481 5468 5457 5445 5434 5421
5695 5704 5710 5713 5716 5719 5724 5729 5727 5727 5726 5723 5721 5719 5717 5714 5712 5710 5705 5699 5693 5687 5681 5673 5664 5651 5639 5629 5620 5606 5596 5586 5574 5559 5543 5528 5515 5503 5491 5480 5467 5456 5445 5434
5697 5705 5711 5713 5717 5722 5725 5728 5729 5730 5729 5728 5726 5724 5723 5720 5718 5715 5710 5704 5698 5692 5686 5678 5670 5660 5647 5636 5625 5614 5605 5596 5584 5569 5553 5539 5527 5515 5503 5492 5480 5469 5460 5450
5699 5708 5712 5716 5720 5723 5726 5730 5732 5733 5732 5732 5731 5729 5727 5725 5723 5720 5715 5710 5704 5697 5691 5684 5677 5668 5656 5644 5634 5623 5614 5606 5594 5582 5567 5552 5541 5530 5518 5507 5496 5484 5476 5468
5706 5712 5716 5719 5722 5725 5729 5732 5734 5735 5735 5735 5735 5734 5731 5731 5728 5725 5720 5715 5709 5703 5697 5691 5684 5676 5665 5655 5644 5633 5625 5616 5607 5596 5583 5569 5556 5547 5536 5525 5513 5502 5494 5487
5713 5717 5720 5722 5725 5729 5732 5734 5736 5738 5738 5738 5738 5737 5736 5734 5733 5730 5725 5720 5715 5709 5704 5698 5691 5684 5675 5666 5657 5645 5636 5627 5619 5610 5599 5587 5575 5564 5556 5544 5533 5523 5514 5507
5720 5723 5724 5726 5729 5732 5734 5737 5739 5740 5741 5741 5741 5740 5739 5738 5736 5734 5730 5726 5721 5716 5711 5705 5699 5692 5685 5677 5669 5658 5649 5640 5631 5623 5616 5607 5595 5582 5574 5565 5555 5546 5537 5531
5726 5728 5729 5731 5733 5735 5737 5738 5740 5742 5743 5744 5744 5743 5742 5742 5740 5738 5735 5731 5727 5722 5717 5712 5707 5701 5694 5688 5680 5672 5662 5652 5644 5636 5628 5621 5614 5603 5593 5586 5579 5572 5564 5557
5731 5731 5732 5732 5734 5737 5738 5740 5742 5744 5745 5746 5746 5746 5746 5745 5743 5741 5738 5735 5732 5728 5724 5719 5715 5709 5704 5698 5691 5683 5675 5667 5657 5649 5642 5636 5630 5623 5614 5608 5603 5598 5590 5584
5734 5734 5735 5735 5737 5738 5740 5742 5744 5746 5747 5747 5748 5749 5748 5748 5746 5744 5742 5740 5737 5734 5730 5726 5721 5717 5712 5707 5701 5694 5689 5681 5672 5663 5657 5651 5646 5641 5635 5629 5625 5622 5616 5611
5736 5736 5737 5737 5739 5740 5742 5743 5745 5747 5748 5749 5750 5751 5751 5750 5748 5747 5746 5744 5742 5739 5736 5732 5728 5724 5720 5715 5710 5705 5700 5693 5687 5680 5673 5667 5662 5658 5654 5651 5647 5643 5640 5637
5737 5737 5737 5738 5739 5741 5742 5744 5746 5747 5749 5750 5751 5752 5752 5751 5750 5750 5748 5747 5745 5744 5741 5738 5735 5731 5728 5724 5719 5714 5710 5705 5700 5694 5691 5685 5679 5673 5669 5665 5664 5662 5661 5659
5738 5738 5738 5739 5740 5741 5742 5744 5746 5747 5748 5749 5750 5751 5751 5752 5751 5751 5750 5749 5748 5747 5745 5743 5741 5738 5735 5732 5728 5724 5720 5716 5712 5708 5703 5699 5695 5690 5684 5682 5679 5677 5677 5675
5738 5739 5739 5739 5740 5740 5741 5742 5744 5746 5748 5749 5749 5750 5751 5752 5752 5751 5751 5750 5750 5749 5748 5747 5745 5743 5741 5738 5736 5732 5729 5726 5722 5719 5716 5712 5708 5705 5702 5699 5695 5691 5689 5688
5738 5738 5739 5739 5739 5739 5740 5741 5742 5743 5745 5747 5748 5749 5750 5750 5751 5751 5751 5751 5751 5750 5750 5749 5748 5747 5745 5743 5741 5739 5737 5734 5731 5729 5726 5723 5720 5718 5715 5712 5709 5707 5705 5704
5736 5736 5737 5737 5738 5737 5737 5739 5739 5740 5742 5743 5745 5746 5747 5748 5749 5749 5750 5750 5750 5750 5750 5749 5749 5748 5747 5746 5745 5743 5741 5740 5738 5736 5734 5732 5730 5727 5725 5724 5722 5720 5718 5718
5734 5734 5733 5734 5735 5735 5736 5735 5735 5737 5738 5739 5740 5742 5743 5745 5745 5746 5748 5748 5748 5748 5748 5748 5748 5748 5748 5747 5746 5745 5744 5743 5742 5741 5740 5738 5736 5735 5734 5732 5731 5730 5729 5728
5729 5730 5730 5730 5730 5730 5731 5732 5732 5732 5734 5734 5735 5736 5737 5739 5741 5742 5743 5744 5745 5746 5746 5746 5747 5747 5747 5747 5747 5746 5746 5745 5744 5743 5743 5742 5741 5740 5740 5739 5738 5737 5736 5735
5724 5724 5724 5725 5725 5725 5726 5726 5727 5727 5728 5729 5730 5730 5731 5732 5734 5735 5737 5739 5740 5741 5742 5743 5744 5744 5744 5745 5745 5745 5745 5745 5744 5743 5743 5743 5743 5743 5743 5742 5742 5742 5741 5741
5719 5719 5718 5718 5718 5718 5718 5719 5719 5720 5721 5721 5722 5723 5725 5726 5727 5728 5730 5731 5733 5735 5736 5737 5739 5740 5741 5741 5742 5742 5743 5743 5743 5743 5742 5742 5742 5742 5742 5742 5743 5743 5743 5743
5715 5714 5713 5711 5711 5710 5710 5710 5711 5712 5713 5715 5715 5716 5717 5718 5719 5721 5722 5724 5725 5727 5728 5730 5732 5733 5735 5736 5737 5738 5739 5739 5740 5740 5740 5740 5740 5740 5740 5740 5741 5741 5741 5742
5710 5709 5708 5708 5707 5704 5703 5702 5702 5703 5704 5705 5706 5707 5708 5709 5710 5712 5713 5714 5716 5718 5720 5722 5723 5725 5727 5729 5730 5732 5733 5734 5735 5736 5737 5737 5737 5737 5737 5737 5737 5737 5737 5738